timestamp,surface_pressure_avg,surface_temp_avg,battery_voltage,lat,long
2018-09-12 00:00:00+00:00,358.7396,16.9,13.05,47.84626,-54.09684
2018-09-12 00:10:00+00:00,358.9046,16.9,12.97,47.84626,-54.09684
2018-09-12 00:20:00+00:00,358.3013,16.9,13.05,47.84626,-54.09684
2018-09-12 00:30:00+00:00,364.3445,16.9,13.05,47.84626,-54.09684
2018-09-12 00:40:00+00:00,367.4163,16.9,13.13,47.84626,-54.09684
2018-09-12 00:50:00+00:00,368.7296,16.9,13.13,47.84626,-54.09684
2018-09-12 01:00:00+00:00,372.4296,16.9,13.05,47.84626,-54.09684
2018-09-12 01:10:00+00:00,377.328,16.9,12.97,47.84626,-54.09684
2018-09-12 01:20:00+00:00,372.3046,16.9,13.05,47.84626,-54.09684
2018-09-12 01:30:00+00:00,372.5095,16.9,13.05,47.84626,-54.09684
2018-09-12 01:40:00+00:00,376.8845,16.9,13.05,47.84626,-54.09684
2018-09-12 01:50:00+00:00,366.2663,16.9,13.05,47.84626,-54.09684
2018-09-12 02:00:00+00:00,360.4647,16.9,13.05,47.84626,-54.09684
2018-09-12 02:10:00+00:00,361.8279,16.9,12.97,47.84626,-54.09684
2018-09-12 02:20:00+00:00,358.6546,16.9,13.05,47.84626,-54.09684
2018-09-12 02:30:00+00:00,349.9547,16.9,13.05,47.84626,-54.09684
2018-09-12 02:40:00+00:00,345.2047,16.9,13.05,47.84626,-54.09684
2018-09-12 02:50:00+00:00,341.4296,16.9,13.05,47.84626,-54.09684
2018-09-12 03:00:00+00:00,333.5913,16.9,13.05,47.84626,-54.09684
2018-09-12 03:10:00+00:00,325.678,16.9,12.97,47.84626,-54.09684
2018-09-12 03:20:00+00:00,323.1696,16.9,13.05,47.84626,-54.09684
2018-09-12 03:30:00+00:00,313.1113,16.89,13.05,47.84626,-54.09684
2018-09-12 03:40:00+00:00,299.258,16.88,13.05,47.84626,-54.09684
2018-09-12 03:50:00+00:00,289.6663,16.88,13.05,47.84626,-54.09684
2018-09-12 04:00:00+00:00,283.473,16.88,12.97,47.84626,-54.09684
2018-09-12 04:10:00+00:00,272.6331,16.88,12.89,47.84626,-54.09684
2018-09-12 04:20:00+00:00,257.0015,16.88,12.97,47.84626,-54.09684
2018-09-12 04:30:00+00:00,245.2448,16.88,12.97,47.84626,-54.09684
2018-09-12 04:40:00+00:00,237.6181,16.88,13.05,47.84626,-54.09684
2018-09-12 04:50:00+00:00,230.9348,16.87,13.05,47.84626,-54.09684
2018-09-12 05:00:00+00:00,218.7731,16.87,12.97,47.84626,-54.09684
2018-09-12 05:10:00+00:00,205.4281,16.86,12.89,47.84626,-54.09684
2018-09-12 05:20:00+00:00,195.1881,16.86,12.97,47.84626,-54.09684
2018-09-12 05:30:00+00:00,189.3131,16.85,12.97,47.84626,-54.09684
2018-09-12 05:40:00+00:00,183.9315,16.83,12.97,47.84626,-54.09684
2018-09-12 05:50:00+00:00,178.3665,16.82,12.97,47.84626,-54.09684
2018-09-12 06:00:00+00:00,173.9598,16.8,12.97,47.84626,-54.09684
2018-09-12 06:10:00+00:00,169.7832,16.8,12.89,47.84626,-54.09684
2018-09-12 06:20:00+00:00,166.8865,16.8,12.97,47.84626,-54.09684
2018-09-12 06:30:00+00:00,163.1931,16.8,12.97,47.84626,-54.09684
2018-09-12 06:40:00+00:00,162.8948,16.8,12.97,47.84626,-54.09684
2018-09-12 06:50:00+00:00,164.6698,16.8,12.97,47.84626,-54.09684
2018-09-12 07:00:00+00:00,164.0248,16.8,12.89,47.84626,-54.09684
2018-09-12 07:10:00+00:00,167.0465,16.8,12.81,47.84626,-54.09684
2018-09-12 07:20:00+00:00,172.5165,16.8,12.89,47.84626,-54.09684
2018-09-12 07:30:00+00:00,172.7448,16.8,12.89,47.84626,-54.09684
2018-09-12 07:40:00+00:00,173.2698,16.8,12.97,47.84626,-54.09684
2018-09-12 07:50:00+00:00,177.6915,16.8,12.97,47.84626,-54.09684
2018-09-12 08:00:00+00:00,181.9682,16.79,12.89,47.84626,-54.09684
2018-09-12 08:10:00+00:00,187.6231,16.79,12.81,47.84626,-54.09684
2018-09-12 08:20:00+00:00,191.9048,16.78,12.89,47.84626,-54.09684
2018-09-12 08:30:00+00:00,194.1014,16.78,12.89,47.84626,-54.09684
2018-09-12 08:40:00+00:00,199.6281,16.79,12.89,47.84626,-54.09684
2018-09-12 08:50:00+00:00,205.8214,16.79,12.89,47.84626,-54.09684
2018-09-12 09:00:00+00:00,207.3948,16.8,12.89,47.84626,-54.09684
2018-09-12 09:10:00+00:00,212.9998,16.8,12.81,47.84626,-54.09684
2018-09-12 09:20:00+00:00,221.0698,16.8,12.89,47.84626,-54.09684
2018-09-12 09:30:00+00:00,221.9897,16.8,12.89,47.84626,-54.09684
2018-09-12 09:40:00+00:00,223.858,16.8,12.89,47.84626,-54.09684
2018-09-12 09:50:00+00:00,234.7798,16.8,12.97,47.84626,-54.09684
2018-09-12 10:00:00+00:00,244.968,16.78,12.97,47.84626,-54.09684
2018-09-12 10:10:00+00:00,246.9431,16.79,12.89,47.84626,-54.09684
2018-09-12 10:20:00+00:00,250.6914,16.79,12.97,47.84626,-54.09684
2018-09-12 10:30:00+00:00,263.1947,16.76,12.97,47.84626,-54.09684
2018-09-12 10:40:00+00:00,274.8181,16.76,12.97,47.84626,-54.09684
2018-09-12 10:50:00+00:00,277.6964,16.78,12.97,47.84626,-54.09684
2018-09-12 11:00:00+00:00,283.638,16.75,12.97,47.84626,-54.09684
2018-09-12 11:10:00+00:00,297.5563,16.72,12.89,47.84626,-54.09684
2018-09-12 11:20:00+00:00,307.0914,16.76,12.89,47.84626,-54.09684
2018-09-12 11:30:00+00:00,309.668,16.78,12.97,47.84626,-54.09684
2018-09-12 11:40:00+00:00,323.048,16.76,12.97,47.84626,-54.09684
2018-09-12 11:50:00+00:00,338.2063,16.77,12.97,47.84626,-54.09684
2018-09-12 12:00:00+00:00,343.9045,16.77,12.89,47.84626,-54.09684
2018-09-12 12:10:00+00:00,348.4246,16.78,12.81,47.84626,-54.09684
2018-09-12 12:20:00+00:00,361.4762,16.77,12.89,47.84626,-54.09684
2018-09-12 12:30:00+00:00,368.2262,16.77,12.89,47.84626,-54.09684
2018-09-12 12:40:00+00:00,370.153,16.8,12.97,47.84626,-54.09684
2018-09-12 12:50:00+00:00,376.0096,16.8,12.97,47.84626,-54.09684
2018-09-12 13:00:00+00:00,381.7112,16.8,12.97,47.84626,-54.09684
2018-09-12 13:10:00+00:00,379.3663,16.8,12.89,47.84626,-54.09684
2018-09-12 13:20:00+00:00,378.1597,16.8,12.97,47.84626,-54.09684
2018-09-12 13:30:00+00:00,379.383,16.8,12.97,47.84626,-54.09684
2018-09-12 13:40:00+00:00,378.3096,16.8,13.05,47.84626,-54.09684
2018-09-12 13:50:00+00:00,376.7278,16.8,13.05,47.84626,-54.09684
2018-09-12 14:00:00+00:00,375.4146,16.8,13.05,47.84626,-54.09684
2018-09-12 14:10:00+00:00,373.4596,16.8,12.97,47.84626,-54.09684
2018-09-12 14:20:00+00:00,368.7662,16.8,13.05,47.84626,-54.09684
2018-09-12 14:30:00+00:00,363.6163,16.8,13.05,47.84626,-54.09684
2018-09-12 14:40:00+00:00,363.1929,16.8,13.05,47.84626,-54.09684
2018-09-12 14:50:00+00:00,361.0363,16.8,13.05,47.84626,-54.09684
2018-09-12 15:00:00+00:00,352.2579,16.8,12.97,47.84626,-54.09684
2018-09-12 15:10:00+00:00,346.7996,16.8,12.89,47.84626,-54.09684
2018-09-12 15:20:00+00:00,345.8513,16.8,12.97,47.84626,-54.09684
2018-09-12 15:30:00+00:00,336.9346,16.8,12.97,47.84626,-54.09684
2018-09-12 15:40:00+00:00,324.453,16.8,12.97,47.84626,-54.09684
2018-09-12 15:50:00+00:00,321.813,16.8,12.97,47.84626,-54.09684
2018-09-12 16:00:00+00:00,314.053,16.8,12.89,47.84626,-54.09684
2018-09-12 16:10:00+00:00,300.238,16.8,12.81,47.84626,-54.09684
2018-09-12 16:20:00+00:00,286.2397,16.8,12.89,47.84626,-54.09684
2018-09-12 16:30:00+00:00,279.7497,16.8,12.89,47.84626,-54.09684
2018-09-12 16:40:00+00:00,271.0797,16.8,12.89,47.84626,-54.09684
2018-09-12 16:50:00+00:00,255.8997,16.8,12.97,47.84626,-54.09684
2018-09-12 17:00:00+00:00,245.4581,16.8,12.89,47.84626,-54.09684
2018-09-12 17:10:00+00:00,242.2914,16.8,12.81,47.84626,-54.09684
2018-09-12 17:20:00+00:00,234.0747,16.8,12.89,47.84626,-54.09684
2018-09-12 17:30:00+00:00,219.4764,16.8,12.97,47.84626,-54.09684
2018-09-12 17:40:00+00:00,208.6681,16.8,13.05,47.84626,-54.09684
2018-09-12 17:50:00+00:00,202.2181,16.8,13.05,47.84626,-54.09684
2018-09-12 18:00:00+00:00,192.8298,16.8,13.05,47.84626,-54.09684
2018-09-12 18:10:00+00:00,184.1014,16.8,13.05,47.84626,-54.09684
2018-09-12 18:20:00+00:00,182.5715,16.8,13.21,47.84626,-54.09684
2018-09-12 18:30:00+00:00,179.4231,16.79,13.29,47.84626,-54.09684
2018-09-12 18:40:00+00:00,170.3915,16.8,13.29,47.84626,-54.09684
2018-09-12 18:50:00+00:00,167.4148,16.8,13.44,47.84626,-54.09684
2018-09-12 19:00:00+00:00,169.7965,16.8,13.44,47.84626,-54.09684
2018-09-12 19:10:00+00:00,169.1048,16.8,13.37,47.84626,-54.09684
2018-09-12 19:20:00+00:00,165.5015,16.8,13.37,47.84626,-54.09684
2018-09-12 19:30:00+00:00,163.3565,16.8,13.37,47.84626,-54.09684
2018-09-12 19:40:00+00:00,165.9465,16.8,13.44,47.84626,-54.09684
2018-09-12 19:50:00+00:00,169.8632,16.8,13.44,47.84626,-54.09684
2018-09-12 20:00:00+00:00,172.2032,16.8,13.37,47.84626,-54.09684
2018-09-12 20:10:00+00:00,173.4782,16.8,13.29,47.84626,-54.09684
2018-09-12 20:20:00+00:00,178.7632,16.8,13.29,47.84626,-54.09684
2018-09-12 20:30:00+00:00,186.8315,16.8,13.29,47.84626,-54.09684
2018-09-12 20:40:00+00:00,189.4715,16.8,13.29,47.84626,-54.09684
2018-09-12 20:50:00+00:00,192.1631,16.84,13.29,47.84626,-54.09684
2018-09-12 21:00:00+00:00,202.3914,16.87,13.29,47.84626,-54.09684
2018-09-12 21:10:00+00:00,207.0365,16.83,13.13,47.84626,-54.09684
2018-09-12 21:20:00+00:00,205.2948,16.89,13.21,47.84626,-54.09684
2018-09-12 21:30:00+00:00,213.0664,16.88,13.13,47.84626,-54.09684
2018-09-12 21:40:00+00:00,225.8697,16.8,13.13,47.84626,-54.09684
2018-09-12 21:50:00+00:00,226.1115,16.82,13.13,47.84626,-54.09684
2018-09-12 22:00:00+00:00,223.6598,16.84,13.05,47.84626,-54.09684
2018-09-12 22:10:00+00:00,229.7264,16.83,12.97,47.84626,-54.09684
2018-09-12 22:20:00+00:00,238.1414,16.84,12.97,47.84626,-54.09684
2018-09-12 22:30:00+00:00,239.7965,16.86,12.97,47.84626,-54.09684
2018-09-12 22:40:00+00:00,241.5297,16.84,12.97,47.84626,-54.09684
2018-09-12 22:50:00+00:00,247.5431,16.83,12.97,47.84626,-54.09684
2018-09-12 23:00:00+00:00,257.5663,16.86,12.97,47.84626,-54.09684
2018-09-12 23:10:00+00:00,268.5648,16.88,12.89,47.84626,-54.09684
2018-09-12 23:20:00+00:00,276.473,16.89,12.89,47.84626,-54.09684
2018-09-12 23:30:00+00:00,283.478,16.87,12.97,47.84626,-54.09684
2018-09-12 23:40:00+00:00,290.6247,16.88,12.97,47.84626,-54.09684
2018-09-12 23:50:00+00:00,299.8763,16.87,12.97,47.84626,-54.09684
